{"data":{"norad_id":59253,"epoch":"2026-09-20T21:41:07.812096Z","epoch_age_seconds":123922,"freshness":"FRESH","line1":"1 59253U 24049Y   26263.90356264 -.00000245  00000+0  60971-6 0  9997","line2":"2 59253  43.0014 120.8857 0001057 270.8688  89.2043 15.27574912142254","mean_motion":15.27574912,"eccentricity":0.0001057,"inclination_deg":43.0014,"raan_deg":120.8857,"arg_perigee_deg":270.8688,"mean_anomaly_deg":89.2043,"bstar":6.0971e-7,"rev_number":14225,"period_min":94.267062694468,"perigee_km":482.33910240361,"apogee_km":483.78956036507,"semimajor_km":6861.2013313843,"source":"CELESTRAK","updated_at":"2026-09-21T09:00:34.079302Z"}}